星链-5366 (STARLINK-5366 )

导读

STARLINK-5366是美国太空探索技术公司(SpaceX)星链互联网卫星星座的一员,于北京时间2023年2月2日发射入轨。它属于星链项目的部署批次卫星,星链旨在构建全球卫星互联网通信网络,为全球范围提供宽带互联网接入服务,该卫星进一步扩充了星链星座的在轨卫星规模。

Basic Information
目录编号:
55499
目录名称:
STARLINK-5366
国际标识:
2023-015BC
轨道中心:
EARTH
卫星名称:
星链-5366
卫星全名:
星链-5366 (STARLINK-5366 )
卫星状态:
在轨 (已飞行1317 天)
发射日期:
2023-02-02 UTC
国别 :
美国 (US)
星等 :
--
This satellite is enrolled in the Space Conjunction Data Service (SCDS) and the current flight risk assessment level is: High Risk
Orbit Information
数据来源 国际轨道数据
星历时间: 2026-09-10T23:10:56+0800
1天前
查看轨道信息
半长轴: 6861.204km
偏心率: 0.0001017
轨道倾角: 43.003°
近地点辐角 269.607°
升交点赤经 14.939°
平近点角 90.467°
近地点: 482.369km
远地点: 483.765km
周期: 94.267分钟
每日圈数: 15.275742
Detailed Information
固有亮度:
5
最大亮度:
2.5
卫星平台:
Starlink v1.5
覆盖范围:
全球
运营商:
太空探索技术公司
运营商所在国:
美国
制造商(研发单位):
太空探索技术公司
制造商所在国:
美国
使用方式:
暂无
Satellite Introduction
星链(Starlink)计划是由太空探索技术公司(SpaceX)提出的一个巨型低轨卫星互联网星座项目,计划在2019年至2024年间在太空搭建由约1.2万颗卫星组成的“星链”网络,其中1584颗将部署在地球上空550千米处的近地轨道,并从2020年开始工作。该卫星仍在工作。
2D Orbit Map
3D Orbit Map
Orbit Altitude Analysis Chart
Orbit Inclination Analysis Chart
Orbit Comprehensive Analysis Chart
View Comprehensive Chart
Conjunction Data List
Event ID Objects TCA Miss Dist (km) Collision Risk Probability Collision Risk Index (CRI) Action
CDM_260913-012005-549906-796022
2026-09-13T
01:20:10+0000
0.301 km
远距离
4.280614E-4 高风险 0.88
CDM_260913-100805-549906-782821
2026-09-13T
10:08:46+0000
0.524 km
远距离
1.078236E-4 高风险 0.76
CDM_260912-235605-549906-782821
2026-09-12T
23:56:46+0000
0.656 km
远距离
5.768245E-5 中风险 0.7
CDM_260912-080205-549906-439222
2026-09-12T
08:02:40+0000
0.996 km
远距离
2.124952E-5 中风险 0.62
CDM_260913-122105-549906-210221
2026-09-13T
12:21:41+0000
1.095 km
极远距离
1.458045E-5 中风险 0.58
CDM_260913-144005-549906-796021
2026-09-13T
14:40:28+0000
1.110 km
极远距离
1.433366E-5 中风险 0.58
CDM_260912-212205-549906-439221
2026-09-12T
21:22:57+0000
1.190 km
极远距离
1.142319E-5 中风险 0.56
CDM_260913-053705-549906-698722
2026-09-13T
05:37:56+0000
1.272 km
极远距离
4.7064E-6 低风险 0.48
CDM_260913-062605-549906-704321
2026-09-13T
06:26:33+0000
1.453 km
极远距离
3.643512E-6 低风险 0.46
CDM_260913-045205-549906-704321
2026-09-13T
04:52:24+0000
1.591 km
极远距离
2.754139E-6 低风险 0.44
Miss Distance Evolution Trend with All Objects
Collision Probability Evolution Trend with All Objects